Regional Weather Roundup
Issued by NWS Cleveland, OH

Home | Current Version | Previous Version | Graphics & Text | Print | Product List | Glossary On
Versions: 1 2 3 4 5 6 7 8 9 10 11 12 13 14 15 16 17 18 19 20 21 22 23 24 25 26 27 28 29 30 31 32 33 34 35 36 37 38 39 40 41 42 43 44 45 46 47 48 49 50
000
ASUS41 KCLE 020610
RWRCLE
OHIO REGIONAL WEATHER ROUNDUP
NATIONAL WEATHER SERVICE WILMINGTON, OH
200 AM EDT SUN AUG 02 2015

NOTE: "FAIR" INDICATES FEW OR NO CLOUDS BELOW 12,000 FEET WITH NO
SIGNIFICANT WEATHER AND/OR OBSTRUCTIONS TO VISIBILITY.

OHZ001>008-015>018-024>027-034-035-043-044-020700-
   NORTHWEST OHIO

CITY           SKY/WX    TMP DP  RH WIND       PRES   REMARKS
DEFIANCE       PTCLDY    71  60  68 SW6       29.91F
FINDLAY        PTCLDY    68  59  73 SW7       29.92F
TOLEDO EXPRESS CLEAR     65  57  75 SW3       29.91S
TOLEDO EXEC    PTCLDY    67  57  70 S6        29.91F
LIMA           PTCLDY    68  58  70 SW6       29.95F
$$

OHZ009>014-019>023-028>033-038-089-020700-
   NORTHEAST OHIO

CITY           SKY/WX    TMP DP  RH WIND       PRES   REMARKS
CLE-HOPKINS    MOCLDY    67  55  65 SW6       29.94S
CLE-LAKEFRONT  CLEAR     71  55  56 SW9       29.91S
CUY CO. ARPT   NOT AVBL
LORAIN-ELYRIA  MOCLDY    64  55  72 SW5       29.93F
ASHTABULA      PTCLDY    64  55  72 SW3       29.92S
AKRON-CANTON   PTCLDY    65  55  70 SW7       29.96S
WOOSTER        PTCLDY    59  57  93 CALM      29.96F
MANSFIELD      PTCLDY    65  56  72 SW5       29.96F
YOUNGSTOWN     PTCLDY    64  56  75 SW5       29.94S
$$

OHZ042-051>053-060>062-070>072-077>081-020700-
  SOUTHWEST OHIO

CITY           SKY/WX    TMP DP  RH WIND       PRES   REMARKS
CINC-COVINGTON PTCLDY    66  60  81 W5        30.00S
CINC-LUNKEN    CLEAR     63  61  93 CALM      30.00S
HAMILTON       CLEAR     63  61  93 CALM      30.00S
DAYTON         PTCLDY    65  58  78 SW7       29.99S
WRIGHT-PAT AFB CLEAR     66  60  80 S3        29.98S
DAYTON GENERAL CLEAR     67  57  70 S3        29.99S
WILMINGTON     CLEAR     63  58  83 SW3       30.00S
$$

OHZ036-037-039>041-045>050-054>059-063>069-073>076-082>088-020700-
  CENTRAL AND SOUTHEAST OHIO

CITY           SKY/WX    TMP DP  RH WIND       PRES   REMARKS
COLUMBUS       PTCLDY    67  58  72 S3        29.96S
OSU AIRPORT    PTCLDY    67  57  70 SW6       29.97S
BOLTON FIELD   PTCLDY    64  58  80 W5        29.98S
RICKENBACK AFB PTCLDY    63  58  86 SW3       29.98R
NEWARK         PTCLDY    60  58  92 CALM      29.97S
MARION         PTCLDY    70  55  59 SW6       29.96F
LANCASTER      PTCLDY    59  56  89 SE3       29.97F
ZANESVILLE     PTCLDY    62  58  86 E3        29.97F
NEW PHILLY     MOCLDY    60  58  92 E3        29.97S
$$



USA.gov is the U.S. government's official web portal to all federal, state and local government web resources and services.